Weather History for KPAN - May, 2012

Change the Weather History Date:

Monday, May 21, 2012

  Actual Average Record
Temperature  
Mean Temperature 73 °F -  
Max Temperature 89 °F 81 °F 89 °F (2012)
Min Temperature 57 °F 42 °F 48 °F (2013)
Cooling Degree Days 8    
Growing Degree Days 23 (Base 50)    
Moisture  
Dew Point 14 °F    
Average Humidity 12    
Maximum Humidity 25    
Minimum Humidity 5    
Precipitation  
Precipitation 0.00 in - - ()
Sea Level Pressure  
Sea Level Pressure 30.16 in    
Wind  
Wind Speed 5 mph (SW)    
Max Wind Speed 13 mph    
Max Gust Speed 23 mph    
Visibility 10 miles    
Events      
Averages and records for this station are not official NWS values.
T = Trace of Precipitation, MM = Missing Value Source: NWS Daily Summary

Daily Weather History Graph

Daily Weather History Graph

Search for Another Location

Airport or City:

Trip Planner

Search our weather history database for the weather conditions in past years. The results will help you decide how hot, cold, wet, or windy it might be!

Date:

Astronomy

May. 21, 2012 Rise Set
Actual Time 5:19 AM MST 7:25 PM MST
Civil Twilight 4:50 AM MST 7:53 PM MST
Nautical Twilight 4:16 AM MST 8:28 PM MST
Astronomical Twilight 3:39 AM MST 9:05 PM MST
Moon 5:45 AM MST (5/21) 8:17 PM MST (5/21)
Length of Visible Light 15h 02m
Length of Day
14h 06m
New Moon, 1% of the Moon is Illuminated
May 21
New Moon
May 28
First Quarter
Jun 4
Full
Jun 11
Last Quarter
Jun 19
New

Hourly Weather History & Observations

Time (MST) Temp. Dew Point Humidity Pressure Visibility Wind Dir Wind Speed Gust Speed Precip Events Conditions
12:15 AM 60.8 °F 21.2 °F 22% 30.16 in 10.0 mi NW 4.6 mph - N/A   Clear
12:35 AM 60.8 °F 21.2 °F 22% 30.16 in 10.0 mi WNW 4.6 mph - N/A   Clear
12:55 AM 62.6 °F 21.2 °F 20% 30.16 in 10.0 mi WNW 4.6 mph - N/A   Clear
1:15 AM 62.6 °F 21.2 °F 20% 30.16 in 10.0 mi NNW 3.5 mph - N/A   Clear
1:35 AM 60.8 °F 21.2 °F 22% 30.15 in 10.0 mi WNW 4.6 mph - N/A   Clear
1:55 AM 62.6 °F 21.2 °F 20% 30.15 in 10.0 mi NW 3.5 mph - N/A   Clear
2:15 AM 60.8 °F 21.2 °F 22% 30.15 in 10.0 mi Calm Calm - N/A   Clear
2:35 AM 64.4 °F 19.4 °F 18% 30.14 in 10.0 mi Calm Calm - N/A   Clear
2:55 AM 62.6 °F 21.2 °F 20% 30.14 in 10.0 mi Calm Calm - N/A   Clear
3:15 AM 60.8 °F 21.2 °F 22% 30.15 in 10.0 mi Calm Calm - N/A   Clear
3:35 AM 60.8 °F 21.2 °F 22% 30.15 in 10.0 mi NW 3.5 mph - N/A   Clear
3:55 AM - - N/A% 30.14 in 10.0 mi WNW 3.5 mph - N/A   Clear
4:15 AM 59.0 °F 21.2 °F 23% 30.15 in 10.0 mi Calm Calm - N/A   Clear
4:35 AM 57.2 °F 21.2 °F 25% 30.16 in 10.0 mi Calm Calm - N/A   Clear
4:55 AM 57.2 °F 21.2 °F 25% 30.16 in 10.0 mi WNW 3.5 mph - N/A   Clear
5:15 AM 57.2 °F 21.2 °F 25% 30.16 in 10.0 mi WNW 3.5 mph - N/A   Clear
5:35 AM 57.2 °F 21.2 °F 25% 30.17 in 9.0 mi Calm Calm - N/A   Clear
5:55 AM 57.2 °F 21.2 °F 25% 30.17 in 9.0 mi WNW 3.5 mph - N/A   Clear
6:15 AM 57.2 °F 21.2 °F 25% 30.18 in 9.0 mi Calm Calm - N/A   Clear
6:35 AM 60.8 °F 23.0 °F 23% 30.18 in 9.0 mi Calm Calm - N/A   Clear
6:55 AM 62.6 °F 24.8 °F 24% 30.19 in 9.0 mi Calm Calm - N/A   Clear
7:15 AM 69.8 °F 23.0 °F 17% 30.20 in 9.0 mi East 3.5 mph - N/A   Clear
7:35 AM 71.6 °F 23.0 °F 16% 30.20 in 9.0 mi East 3.5 mph - N/A   Clear
7:55 AM 73.4 °F 21.2 °F 14% 30.20 in 8.0 mi ESE 5.8 mph - N/A   Clear
8:15 AM 73.4 °F 21.2 °F 14% 30.21 in 10.0 mi ESE 8.1 mph - N/A   Clear
8:55 AM 77.0 °F 21.2 °F 12% 30.21 in 9.0 mi ESE 6.9 mph - N/A   Clear
9:15 AM 78.8 °F 19.4 °F 11% 30.21 in 9.0 mi East 3.5 mph - N/A   Clear
9:35 AM 80.6 °F 19.4 °F 10% 30.21 in 9.0 mi SE 6.9 mph - N/A   Clear
9:55 AM 80.6 °F 19.4 °F 10% 30.21 in 9.0 mi SSW 5.8 mph - N/A   Clear
10:15 AM 80.6 °F 19.4 °F 10% 30.21 in 8.0 mi South 10.4 mph - N/A   Clear
10:35 AM 82.4 °F 19.4 °F 10% 30.20 in 10.0 mi SSE 8.1 mph - N/A   Partly Cloudy
10:55 AM 82.4 °F 19.4 °F 10% 30.20 in 9.0 mi South 6.9 mph - N/A   Clear
11:15 AM 84.2 °F 19.4 °F 9% 30.20 in 9.0 mi South 9.2 mph - N/A   Clear
11:35 AM 84.2 °F 17.6 °F 8% 30.20 in 9.0 mi South 8.1 mph - N/A   Clear
11:55 AM 86.0 °F 10.4 °F 6% 30.19 in 10.0 mi SSE 9.2 mph - N/A   Clear
12:15 PM 84.2 °F 8.6 °F 6% 30.19 in 9.0 mi South 6.9 mph - N/A   Clear
12:35 PM 87.8 °F 8.6 °F 5% 30.18 in 9.0 mi South 8.1 mph 19.6 mph N/A   Partly Cloudy
12:55 PM 87.8 °F 6.8 °F 5% 30.18 in 10.0 mi SSE 10.4 mph 20.7 mph N/A   Partly Cloudy
1:15 PM 87.8 °F 8.6 °F 5% 30.17 in 9.0 mi SSE 8.1 mph 18.4 mph N/A   Clear
1:35 PM 87.8 °F 8.6 °F 5% 30.17 in 9.0 mi SSE 10.4 mph 23.0 mph N/A   Clear
1:55 PM 87.8 °F 8.6 °F 5% 30.16 in 9.0 mi South 11.5 mph 18.4 mph N/A   Clear
2:15 PM 89.6 °F 10.4 °F 5% 30.15 in 9.0 mi SW 8.1 mph - N/A   Clear
2:35 PM 87.8 °F 8.6 °F 5% 30.14 in 9.0 mi South 12.7 mph 18.4 mph N/A   Clear
2:55 PM 87.8 °F 8.6 °F 5% 30.14 in 10.0 mi South 8.1 mph - N/A   Clear
3:15 PM 87.8 °F 8.6 °F 5% 30.13 in 10.0 mi SSW 8.1 mph 17.3 mph N/A   Clear
3:35 PM 89.6 °F 8.6 °F 5% 30.12 in 10.0 mi SSW 3.5 mph - N/A   Clear
4:15 PM 87.8 °F 8.6 °F 5% 30.12 in 9.0 mi SSW 10.4 mph - N/A   Clear
4:35 PM 87.8 °F 8.6 °F 5% 30.11 in 9.0 mi South 10.4 mph 16.1 mph N/A   Clear
4:55 PM 87.8 °F 6.8 °F 5% 30.11 in 8.0 mi SSW 9.2 mph 17.3 mph N/A   Clear
5:15 PM 86.0 °F 6.8 °F 5% 30.11 in 9.0 mi West 9.2 mph - N/A   Clear
5:35 PM 86.0 °F 6.8 °F 5% 30.11 in 10.0 mi SSW 4.6 mph - N/A   Clear
5:55 PM 86.0 °F 6.8 °F 5% 30.11 in 10.0 mi SSW 8.1 mph - N/A   Clear
6:15 PM 84.2 °F 5.0 °F 5% 30.11 in 9.0 mi WSW 8.1 mph - N/A   Clear
6:35 PM 84.2 °F 5.0 °F 5% 30.11 in 9.0 mi WSW 6.9 mph - N/A   Clear
6:55 PM 82.4 °F 5.0 °F 5% 30.11 in 9.0 mi SW 5.8 mph - N/A   Clear
7:15 PM 80.6 °F 3.2 °F 5% 30.11 in 10.0 mi SW 3.5 mph - N/A   Clear
7:55 PM 78.8 °F 1.4 °F 5% 30.12 in 10.0 mi WSW 5.8 mph - N/A   Clear
8:35 PM 73.4 °F 1.4 °F 6% 30.12 in 10.0 mi West 6.9 mph - N/A   Clear
8:55 PM 75.2 °F -0.4 °F 5% 30.12 in 10.0 mi West 6.9 mph - N/A   Clear
9:35 PM 73.4 °F -0.4 °F 5% 30.13 in 10.0 mi West 4.6 mph - N/A   Clear
9:55 PM 71.6 °F -0.4 °F 6% 30.13 in 10.0 mi NNW 3.5 mph - N/A   Clear
10:15 PM 69.8 °F 5.0 °F 8% 30.13 in 10.0 mi Calm Calm - N/A   Clear
10:35 PM 68.0 °F 3.2 °F 8% 30.13 in 10.0 mi Calm Calm - N/A   Clear
10:55 PM 66.2 °F 6.8 °F 10% 30.13 in 10.0 mi Calm Calm - N/A   Clear
11:15 PM 64.4 °F 6.8 °F 10% 30.13 in 10.0 mi WNW 3.5 mph - N/A   Clear
11:35 PM 64.4 °F 8.6 °F 11% 30.13 in 10.0 mi Calm Calm - N/A   Clear
11:55 PM 64.4 °F 8.6 °F 11% 30.12 in 10.0 mi Calm Calm - N/A   Clear